Temperature
16 16 16 15 15 15 15 15 15 14 14 14 14 14 14 14 14 14 14 13 13 13 13 13 13 13 13 13 13 13 13 13 13 13 13 13 13 13 14 14 14 14 14
16 16 15 15 15 15 15 15 14 14 14 14 14 14 14 14 14 13 13 13 13 13 13 13 13 13 13 13 13 13 13 13 13 13 13 13 13 13 13 13 13 13 14
16 15 15 15 15 15 14 14 14 14 14 14 14 13 13 13 13 13 13 13 13 13 13 13 13 13 13 13 13 13 13 13 13 13 13 13 13 13 13 13 13 13 13
15 15 15 15 15 14 14 14 14 14 13 13 13 13 13 13 13 13 13 13 13 13 13 13 13 13 13 13 13 13 12 12 12 12 13 13 12 13 13 13 13 13 13
15 15 15 15 15 14 14 14 14 13 13 13 13 13 13 13 13 13 13 12 12 12 12 12 13 13 13 13 12 12 12 12 12 12 12 12 12 12 12 12 12 12 13
15 15 15 14 14 14 14 14 13 13 13 13 13 12 12 12 12 13 12 12 12 12 12 12 12 12 12 12 12 12 12 12 12 12 12 12 12 12 12 12 12 12 12
15 15 15 14 14 14 14 14 13 13 13 13 12 12 12 12 12 12 12 12 12 12 12 12 12 12 12 12 12 12 12 12 12 11 11 12 11 11 11 11 11 11 12
15 14 14 14 14 14 14 13 13 13 13 12 12 12 12 12 12 12 12 11 11 11 11 11 11 11 11 11 11 11 11 11 11 11 11 11 11 11 11 11 11 11 11
14 14 14 14 14 13 13 13 13 12 12 12 12 12 11 11 11 11 11 11 11 11 11 11 11 11 11 11 11 10 11 11 11 11 11 11 11 11 11 11 10 10 11
14 14 14 14 13 13 13 13 12 12 12 12 11 11 11 11 11 11 11 10 10 10 10 10 10 10 10 10 10 10 10 10 10 10 10 10 10 10 10 10 10 10 10
14 14 13 13 13 13 12 12 12 12 11 11 11 11 11 11 11 11 11 10 10 10 10 10 10 10 10 10 10 9 10 10 10 10 10 10 10 10 10 10 10 10 10
13 13 13 13 12 12 12 12 11 11 11 11 11 10 10 10 10 10 10 10 10 9 9 9 9 10 10 10 9 9 9 9 9 9 9 9 10 10 9 9 9 9 9
13 13 12 12 12 12 11 11 11 11 10 10 10 10 10 10 10 10 9 9 9 9 9 9 9 9 9 9 9 9 9 9 9 9 9 9 9 9 9 9 9 9 9
12 12 12 11 11 11 11 10 10 10 10 10 9 9 9 9 9 9 9 9 9 9 8 8 8 8 8 8 8 8 8 8 8 8 8 8 8 8 8 8 8 8 8
11 11 11 11 11 10 10 10 10 10 9 9 9 9 8 8 8 9 8 8 8 8 8 8 8 8 8 8 8 8 7 7 7 7 7 7 7 7 7 7 7 7 7
11 10 10 10 10 10 9 9 9 9 9 9 9 9 8 8 8 8 8 8 8 8 7 7 7 7 7 7 7 7 7 7 7 7 6 6 6 6 7 7 7 7 7
10 10 10 9 9 9 9 9 8 8 9 8 8 8 8 8 8 8 8 8 7 7 7 7 7 7 7 7 6 6 6 6 6 6 6 6 6 6 6 6 6 6 6
10 10 9 9 9 9 8 8 8 8 8 8 8 8 8 7 7 7 7 7 7 6 6 6 6 6 6 6 6 6 5 5 5 5 5 5 5 5 5 5 6 6 6
9 9 9 8 8 8 8 8 7 7 7 7 7 7 7 7 7 6 6 6 6 6 6 6 5 5 5 5 5 5 5 5 5 5 5 5 5 5 5 5 5 5 5
8 8 8 8 7 7 7 7 7 7 7 6 6 6 6 6 6 6 6 5 5 5 5 5 5 5 5 5 4 4 4 4 4 4 4 4 4 4 4 4 4 4 5
8 8 7 7 7 7 7 7 6 6 6 6 6 6 5 5 5 5 5 5 5 5 5 4 4 4 4 4 4 4 4 4 4 4 4 4 4 4 3 4 4 4 4
7 7 7 7 6 6 6 6 6 5 5 5 5 5 5 4 4 4 4 4 4 4 4 4 4 4 4 4 3 3 3 3 3 3 3 3 3 3 3 3 3 3 3
7 6 6 6 6 6 5 5 5 5 5 5 4 4 4 4 4 4 4 4 4 4 3 3 3 3 3 3 3 3 3 3 3 3 3 3 3 3 3 3 3 3 3
6 6 6 5 5 5 5 5 5 5 4 4 4 4 4 3 3 3 3 3 3 3 3 3 3 3 3 3 2 2 2 2 2 2 2 2 2 2 2 2 2 2 2
6 5 5 5 5 5 4 4 4 4 4 4 3 3 3 3 3 3 3 3 2 2 2 2 2 2 2 2 2 2 2 2 2 2 2 2 2 2 2 2 2 2 2
5 5 5 4 4 4 4 4 4 4 3 3 3 3 2 2 2 2 2 2 2 2 2 2 2 2 2 2 2 2 2 2 2 2 1 1 1 1 1 1 1 2 2
Wind_Speed
3 3 3 2 2 1 1 1 1 2 2 3 3 3 3 3 3 2 3 3 3 3 3 3 3 3 3 2 3 3 3 3 4 4 4 4 5 5 3 4 4 4 3
3 3 2 2 2 1 1 1 1 2 2 2 3 3 4 3 4 3 3 3 3 4 4 3 3 3 3 3 3 4 3 3 4 5 5 4 5 5 5 4 4 4 4
4 3 3 2 2 1 1 1 1 1 1 2 2 3 3 3 3 3 3 3 4 4 4 4 4 4 4 4 4 4 4 4 4 5 5 5 5 5 5 5 5 4 5
4 3 3 2 2 1 1 1 1 1 1 1 2 2 3 3 3 4 4 4 4 4 4 5 5 5 5 5 5 5 5 5 5 5 5 5 5 5 5 5 5 4 5
4 4 3 2 2 1 1 1 1 1 1 1 2 2 3 3 4 5 5 5 4 4 5 5 5 5 6 6 5 6 6 5 5 5 5 6 5 5 5 5 6 6 6
4 3 3 2 2 1 1 1 1 1 1 1 1 2 2 3 5 7 7 5 5 5 5 5 5 4 4 4 5 6 7 7 7 7 6 7 7 7 5 6 6 6 6
4 3 3 2 2 1 1 1 0 0 1 1 2 2 2 3 5 6 7 6 6 5 6 6 5 5 5 6 5 6 7 7 8 9 10 9 9 8 8 8 7 8 8
4 3 2 2 1 1 0 0 1 1 1 1 2 2 2 3 5 6 8 6 5 5 6 6 6 7 7 8 8 8 8 7 7 8 9 10 9 9 9 9 9 9 9
4 3 2 2 1 1 0 0 1 1 1 2 2 2 3 2 4 6 8 5 5 6 6 6 6 7 8 10 9 9 9 8 6 7 9 10 11 11 10 8 8 8 9
3 3 2 2 1 1 0 1 1 1 2 2 2 3 3 4 4 6 8 5 6 6 6 6 4 6 9 10 9 9 10 10 10 9 9 10 10 10 11 11 10 10 9
3 3 2 2 1 1 0 1 1 1 2 3 3 3 3 3 3 4 7 5 6 7 6 6 5 6 8 11 11 10 10 11 11 11 10 9 8 8 8 9 9 9 10
3 3 2 2 1 1 0 1 1 2 2 3 3 3 3 3 3 3 5 6 9 8 7 7 7 8 11 12 10 9 11 12 9 9 8 8 8 8 8 8 9 10 11
4 3 2 2 1 0 0 1 2 2 3 3 3 4 4 4 3 3 5 7 8 7 8 8 10 11 12 11 8 10 10 9 8 9 9 9 8 9 9 8 10 10 11
3 2 2 1 0 0 1 2 2 3 3 4 4 5 5 5 5 5 6 6 7 8 8 8 10 11 10 10 9 8 8 8 8 9 9 9 8 8 8 8 9 8 9
3 2 1 0 1 1 1 2 3 3 4 5 5 6 6 7 6 8 8 8 8 9 10 9 9 8 8 8 8 8 8 8 8 8 9 9 9 9 9 8 8 9 9
2 1 1 1 1 2 2 2 2 3 3 4 6 7 6 7 9 10 10 11 11 10 10 9 9 9 9 9 9 9 9 8 9 9 9 9 9 10 10 9 9 9 11
2 1 1 1 2 3 3 4 4 3 4 5 6 7 8 9 10 11 11 11 11 10 9 9 9 9 9 9 9 10 10 10 9 10 10 10 10 10 10 10 10 10 11
1 1 2 2 3 3 4 4 5 5 6 6 5 5 7 9 9 10 10 10 9 8 8 9 10 10 10 10 10 10 10 10 10 10 11 10 10 11 11 11 11 12 11
1 1 2 3 3 3 4 4 5 6 7 7 7 6 6 7 8 9 9 8 9 9 9 9 10 10 10 10 10 10 11 11 11 11 11 11 10 11 11 12 12 13 12
1 1 2 3 3 4 4 5 6 6 7 7 8 8 8 9 9 8 8 9 9 10 10 10 10 11 10 11 11 11 11 11 12 11 11 11 11 11 12 13 12 11 11
2 2 3 4 4 5 5 6 7 7 8 8 8 8 9 9 10 11 10 10 10 10 11 11 11 11 10 10 11 12 13 12 11 11 11 11 11 11 11 11 12 12 11
3 3 4 4 5 5 6 7 7 8 9 10 10 9 9 9 10 10 10 10 10 10 10 11 11 10 10 10 11 12 13 13 12 12 12 12 12 12 12 11 11 11 11
4 5 5 5 6 6 7 8 8 9 9 10 10 10 10 10 10 11 11 11 11 11 11 11 11 11 11 12 12 11 12 12 12 12 13 13 13 12 11 12 13 13 12
5 5 6 6 7 7 8 8 9 10 10 11 11 11 11 11 11 12 12 12 11 12 12 12 12 14 17 15 14 14 14 14 14 13 15 15 14 12 12 12 13 14 13
5 6 7 7 8 8 9 9 10 10 11 11 11 11 12 12 12 12 12 12 13 13 14 14 13 14 17 18 17 16 16 16 16 16 14 13 14 14 14 14 13 13 13
6 6 7 7 8 8 9 10 10 11 11 11 11 12 12 12 12 12 12 12 12 12 13 13 15 17 19 18 18 18 17 17 17 17 15 12 14 14 14 12 14 13 13
Wind_Direction
140 134 136 133 122 105 74 54 32 32 31 22 24 21 20 15 12 10 2 3 354 356 348 343 338 337 327 321 320 314 304 302 297 309 314 315 312 310 309 306 301 289 275
147 144 136 125 121 107 77 57 44 43 36 33 32 25 25 20 14 7 360 352 347 345 344 339 336 331 319 314 310 304 301 296 294 304 307 312 313 314 308 296 293 291 294
148 146 142 135 124 110 80 58 43 45 46 47 38 27 22 19 16 7 1 353 343 338 335 332 329 324 315 316 305 302 302 298 290 288 299 307 302 305 306 295 288 289 287
148 146 140 131 122 120 98 76 45 42 36 30 23 18 11 6 3 360 354 347 341 336 331 329 328 327 322 319 310 308 305 298 292 287 291 294 296 299 295 293 290 281 280
148 145 138 130 121 113 94 87 73 37 9 15 8 7 6 356 1 350 340 335 332 332 329 329 337 340 339 325 316 311 306 297 292 289 290 292 291 292 291 293 291 290 281
146 137 131 131 122 117 107 78 76 39 353 354 346 357 4 3 13 349 328 326 327 327 329 327 325 320 323 297 300 301 299 294 295 291 287 286 291 293 294 285 287 289 285
145 135 139 139 125 125 126 94 68 327 348 336 333 341 343 11 11 346 328 320 319 324 325 327 328 326 320 320 299 263 266 258 265 279 283 287 290 294 291 283 278 281 284
145 141 136 138 132 128 99 18 315 326 341 323 333 331 331 357 1 341 324 311 315 317 319 322 323 326 336 328 313 306 303 297 286 276 279 285 289 291 285 282 284 282 279
143 144 141 144 140 132 100 326 309 312 316 307 316 319 318 344 12 345 321 314 312 315 319 323 324 325 346 327 311 305 303 302 286 265 278 279 282 281 277 274 270 268 271
146 145 135 133 144 153 357 329 322 307 296 296 305 307 315 327 11 347 323 314 315 317 318 314 329 331 331 323 313 306 302 306 306 295 277 267 267 262 249 254 260 263 269
141 139 134 138 149 145 79 320 304 303 302 301 302 303 310 324 344 351 332 320 318 314 314 313 322 335 318 312 305 302 305 305 298 294 291 287 282 278 270 262 259 259 263
132 133 137 137 133 132 99 322 308 307 299 299 298 301 303 311 331 337 322 313 314 307 306 308 318 324 309 299 297 303 301 294 288 288 288 288 287 285 283 282 276 266 264
141 140 139 136 128 134 245 291 298 301 302 304 301 300 304 311 307 285 287 291 295 298 302 311 306 298 295 288 281 283 286 285 286 286 288 290 292 294 293 287 281 276 273
155 153 153 160 160 240 289 288 295 301 302 303 304 303 303 302 307 317 312 303 291 292 301 299 283 275 275 282 286 283 285 290 291 288 290 292 293 292 288 286 283 280 276
162 160 162 170 273 289 291 305 298 305 312 299 300 301 302 300 322 328 311 307 308 307 307 297 295 297 297 297 296 296 295 293 288 286 288 289 290 288 286 288 284 278 274
166 172 199 243 272 281 287 289 269 273 295 282 285 291 294 302 313 307 301 301 301 300 296 290 291 294 296 298 299 299 297 295 293 289 288 289 288 287 287 285 283 278 275
174 202 243 270 281 287 293 297 301 277 242 249 264 276 285 298 300 298 297 295 289 281 282 286 291 294 295 296 296 296 295 295 295 291 287 287 288 287 285 285 281 279 278
210 251 270 277 283 288 295 298 299 303 305 304 284 267 275 282 286 288 289 291 287 276 283 288 291 293 293 293 292 293 293 293 292 290 288 286 285 285 284 282 281 279 277
238 267 282 290 284 287 291 294 294 295 297 301 306 303 292 288 276 272 273 286 292 292 290 290 290 291 291 290 290 291 291 289 288 287 286 284 284 284 284 283 284 282 276
248 292 284 283 284 286 290 291 293 294 296 299 302 308 314 311 307 303 296 294 293 291 291 290 290 290 292 291 290 289 288 285 284 283 285 285 282 282 282 282 283 282 279
245 251 253 272 283 290 292 293 294 294 294 297 298 302 303 300 299 299 298 295 293 293 293 293 292 292 291 291 289 288 288 286 283 283 284 284 282 281 280 279 278 278 277
252 265 272 279 285 288 294 294 294 295 296 296 298 298 291 290 295 296 296 295 295 294 294 292 289 290 290 289 289 289 289 288 286 286 285 284 282 279 278 277 277 278 275
262 273 278 282 285 285 285 290 293 294 296 297 298 299 299 298 297 297 297 298 296 295 295 293 291 290 289 288 287 287 288 289 290 291 290 287 284 280 278 275 275 277 274
265 272 279 283 285 286 288 291 293 295 296 297 298 299 299 299 298 298 298 297 295 294 294 294 292 291 292 291 289 287 286 290 295 294 291 289 285 281 278 275 274 273 272
266 274 280 283 286 288 289 291 294 295 296 296 297 298 298 298 297 297 298 297 296 294 294 295 294 293 293 293 292 290 291 293 292 292 293 287 282 279 275 273 271 273 271
268 275 280 283 286 289 291 293 294 296 297 298 298 298 297 297 297 297 297 296 296 295 295 295 294 294 295 294 294 295 295 290 285 285 287 283 279 276 273 270 271 269 270
Height
1560 1561 1561 1561 1561 1561 1561 1561 1560 1560 1559 1559 1558 1557 1556 1555 1554 1553 1552 1551 1550 1550 1548 1547 1546 1545 1544 1543 1542 1541 1540 1539 1538 1537 1536 1534 1533 1532 1531 1530 1529 1528 1528
1559 1560 1561 1561 1561 1561 1561 1560 1560 1559 1559 1558 1558 1557 1556 1555 1554 1553 1552 1551 1550 1549 1548 1547 1546 1544 1543 1543 1541 1540 1539 1538 1537 1535 1534 1533 1532 1530 1529 1528 1527 1527 1525
1559 1559 1560 1560 1560 1560 1560 1559 1559 1559 1558 1558 1557 1556 1555 1554 1553 1552 1551 1550 1549 1549 1548 1546 1545 1544 1543 1542 1540 1540 1538 1537 1535 1534 1532 1531 1530 1529 1527 1526 1525 1524 1523
1558 1559 1559 1559 1559 1559 1559 1559 1558 1558 1557 1557 1556 1555 1554 1554 1553 1552 1551 1549 1548 1547 1546 1545 1544 1543 1542 1540 1539 1538 1537 1535 1534 1532 1531 1529 1528 1526 1525 1524 1523 1522 1520
1557 1558 1558 1558 1558 1558 1558 1558 1557 1557 1557 1556 1555 1554 1553 1552 1551 1550 1549 1548 1547 1546 1545 1543 1542 1540 1539 1538 1537 1536 1534 1533 1532 1530 1529 1527 1526 1524 1523 1522 1520 1519 1518
1556 1557 1557 1557 1557 1557 1557 1557 1556 1556 1555 1555 1554 1553 1552 1551 1550 1549 1548 1547 1546 1544 1543 1541 1540 1538 1537 1535 1534 1533 1532 1531 1529 1528 1527 1525 1524 1522 1520 1519 1518 1516 1515
1555 1555 1556 1556 1556 1556 1556 1555 1555 1554 1554 1553 1553 1552 1551 1550 1548 1547 1546 1545 1544 1542 1541 1539 1538 1536 1534 1533 1531 1530 1528 1527 1526 1525 1524 1522 1521 1519 1518 1516 1514 1513 1512
1554 1554 1554 1555 1555 1554 1554 1554 1553 1553 1552 1552 1551 1550 1549 1548 1546 1545 1544 1543 1542 1540 1539 1537 1535 1533 1532 1530 1528 1527 1526 1524 1522 1521 1519 1518 1516 1515 1514 1512 1510 1509 1507
1552 1552 1553 1553 1553 1553 1552 1552 1551 1551 1550 1550 1549 1548 1547 1546 1544 1543 1541 1540 1539 1538 1536 1534 1533 1531 1528 1526 1525 1523 1521 1520 1518 1516 1514 1512 1511 1509 1508 1507 1506 1505 1503
1550 1551 1551 1551 1551 1551 1550 1550 1549 1549 1548 1547 1547 1546 1545 1544 1542 1541 1539 1538 1537 1535 1533 1531 1529 1527 1525 1523 1522 1520 1518 1516 1514 1511 1509 1508 1506 1504 1503 1502 1501 1500 1498
1548 1549 1549 1549 1549 1549 1548 1548 1547 1547 1546 1545 1544 1543 1542 1541 1539 1538 1537 1535 1534 1532 1531 1529 1526 1524 1522 1519 1517 1515 1513 1511 1509 1507 1505 1503 1501 1499 1498 1497 1495 1494 1493
1547 1547 1547 1547 1547 1547 1546 1546 1545 1544 1543 1543 1542 1541 1540 1538 1537 1535 1534 1532 1530 1529 1527 1525 1523 1520 1517 1515 1513 1510 1508 1506 1504 1502 1500 1498 1496 1495 1493 1491 1489 1488 1486
1545 1545 1545 1545 1545 1545 1544 1544 1543 1542 1541 1540 1539 1538 1537 1535 1534 1532 1530 1528 1526 1524 1522 1520 1517 1515 1512 1510 1508 1505 1503 1502 1500 1498 1496 1494 1492 1489 1487 1485 1483 1481 1479
1543 1544 1544 1544 1543 1543 1542 1541 1541 1540 1539 1538 1536 1535 1533 1532 1530 1528 1526 1524 1522 1520 1518 1515 1512 1510 1507 1505 1503 1501 1499 1497 1495 1492 1490 1488 1486 1484 1481 1479 1477 1475 1473
1541 1542 1542 1541 1541 1540 1539 1539 1538 1537 1536 1535 1533 1532 1530 1528 1526 1524 1522 1520 1518 1516 1513 1510 1508 1506 1503 1501 1499 1497 1494 1492 1489 1487 1485 1482 1480 1478 1476 1474 1471 1469 1467
1539 1539 1539 1539 1538 1537 1536 1536 1534 1533 1532 1530 1529 1527 1525 1524 1521 1519 1517 1515 1513 1510 1508 1505 1503 1501 1499 1496 1494 1491 1489 1487 1484 1482 1479 1477 1475 1472 1470 1467 1465 1463 1460
1537 1537 1536 1536 1535 1535 1534 1532 1531 1530 1528 1526 1524 1523 1521 1519 1517 1514 1512 1510 1507 1505 1503 1501 1498 1496 1494 1491 1489 1486 1483 1481 1479 1476 1474 1471 1469 1466 1464 1461 1459 1456 1454
1534 1534 1534 1533 1532 1531 1530 1529 1528 1526 1524 1522 1520 1518 1516 1513 1511 1509 1506 1504 1502 1500 1498 1496 1493 1491 1488 1485 1483 1480 1478 1475 1472 1470 1467 1465 1463 1460 1458 1455 1453 1450 1448
1531 1531 1530 1530 1529 1528 1527 1525 1524 1522 1520 1518 1516 1514 1511 1508 1506 1503 1501 1499 1497 1495 1493 1490 1487 1485 1482 1479 1477 1474 1471 1469 1466 1463 1461 1458 1456 1453 1451 1448 1446 1443 1441
1528 1527 1527 1526 1525 1524 1523 1522 1520 1518 1516 1514 1511 1509 1506 1504 1501 1498 1496 1494 1491 1489 1486 1484 1481 1478 1476 1473 1470 1468 1465 1462 1459 1457 1454 1451 1449 1446 1444 1441 1439 1437 1434
1524 1524 1523 1523 1522 1520 1519 1517 1516 1514 1511 1509 1506 1504 1501 1498 1495 1493 1491 1488 1486 1483 1480 1477 1475 1472 1469 1467 1464 1461 1458 1455 1453 1450 1447 1444 1442 1439 1436 1434 1431 1430 1427
1521 1521 1520 1519 1518 1516 1514 1513 1511 1509 1506 1504 1501 1499 1496 1493 1490 1487 1485 1482 1479 1476 1474 1471 1468 1465 1463 1460 1457 1454 1451 1448 1445 1443 1440 1437 1434 1431 1429 1426 1424 1422 1421
1517 1517 1516 1515 1513 1511 1510 1508 1506 1504 1501 1498 1496 1493 1490 1487 1485 1482 1479 1475 1472 1469 1467 1464 1461 1458 1455 1453 1450 1447 1444 1441 1438 1435 1432 1429 1426 1423 1421 1419 1417 1415 1413
1513 1513 1511 1510 1509 1507 1505 1503 1501 1498 1496 1493 1490 1487 1484 1481 1478 1475 1472 1469 1465 1462 1459 1457 1453 1450 1448 1445 1442 1439 1436 1433 1430 1427 1424 1420 1417 1415 1413 1411 1409 1407 1405
1509 1508 1507 1506 1504 1502 1500 1497 1495 1492 1490 1487 1484 1481 1477 1474 1471 1468 1465 1461 1458 1455 1452 1449 1446 1443 1439 1436 1433 1431 1428 1424 1422 1419 1415 1412 1409 1406 1404 1402 1400 1398 1397
1504 1503 1502 1501 1499 1497 1494 1492 1489 1486 1484 1481 1477 1474 1470 1467 1464 1460 1457 1454 1450 1447 1444 1441 1437 1434 1431 1428 1425 1422 1419 1416 1413 1410 1407 1403 1400 1398 1396 1394 1392 1390 1389